2020-003D (45019 NORAD) Tracking and Keplerian Element Data

This shows tracking and keplerian element data for the satellite.

Feedback or suggestion? Click here.




ElementValue
Catalog45019
Name2020-003D
Epoch Orbit580
Epoch Day53.16093213
Epoch Year2020
RAAN121.426
Inclination97.3311
Eccentricity0.0014698
Argument of Perigee136.2213
Mean Anonmoly224.0195
Mean Motion15.27425238
Decay Rate9.09E-06
L11 45019U 20003D 20053.16093213 .00000909 00000-0 36489-4 0 9991
L22 45019 97.3311 121.4260 0014698 136.2213 224.0195 15.27425238 5802

Live tracking and technical data element details for 2020-003D (NORAD 45019). 2020-003D can be tracked NOW for your location showing map with azimuth and elevation plus other details from your city location.

Track the satellite on the map from your city or location and see movement details for azimuth, elevation, latitude, longitude, range, height, and movement on the map or in text.







IsCatalogInMostPopularTable: catalog: 45019, numindb: 12
Update: records affected: 1



GetName: 45019 2020-003D

Hit Count: updated at: Mon, 24 Feb 2020 15:05:48 GMT